Tracking 19969 objects as of 12-Nov-2019
Live streaming from Space Station
objects crossing your sky now
Track the group of recently launched Starlink satellites

THORAD DELTA 1 DEB

Track THORAD DELTA 1 DEB now!
10-day predictions


NORAD ID: 8178
Int'l Code: 1974-089AU
Perigee: 1,314.3 km
Apogee: 1,629.3 km
Inclination: 102.2 °
Period: 115.2 minutes
Semi major axis: 7842 km
RCS: 0.0233 m2 (small)
Launch date: November 15, 1974
Source: United States (US)
Launch site: AIR FORCE WESTERN TEST RANGE (AFWTR)

Note: This is SATELLITE DEBRIS
aabbcc
Your satellite tracking list
Your tracking list is empty




NASA's NSSDC Master Catalog

Two Line Element Set (TLE):
1  8178U 74089AU  19312.41982124  .00000438  00000-0  29716-2 0  9991
2  8178 102.2325 277.0180 0200840 243.5726 270.6300 12.49956390 24304
Source of the keplerian elements: AFSPC